Skip Page Navigation
NASA JPL Caltech
NASA Logo - Jet Propulsion Laboratory + View the NASA Portal
+ Near-Earth Object (NEO) Program
Search JPL
JPL Home Earth Solar System Stars & Galaxies Technology
JPL Solar System Dynamics
BODIES ORBITS EPHEMERIDES TOOLS PHYSICAL DATA DISCOVERY FAQ SITE MAP
JPL Small-Body Database Browser
Search: [ help ]  
43982 (1997 GA32)
Classification: Main-belt Asteroid          SPK-ID: 2043982
Ephemeris | Orbit Diagram | Orbital Elements | Physical Parameters | Discovery Circumstances ]

[ show orbit diagram ]
Orbital Elements at Epoch 2456400.5 (2013-Apr-18.0) TDB
Reference: JPL 1 (heliocentric ecliptic J2000)
 Element Value Uncertainty (1-sigma)   Units 
e .2120694400255018 9.7901e-08  
a 2.542950355178272 2.463e-08 AU
q 2.003668297342964 2.5036e-07 AU
i 8.336332133154706 6.2717e-06 deg
node 148.4414961457232 8.1227e-05 deg
peri 303.2832877704578 8.354e-05 deg
M 98.34431332146917 2.2641e-05 deg
tp 2455995.875662843603
(2012-Mar-09.37566284)
9.1048e-05 JED
period 1481.171167469054
4.06
2.1519e-05
5.892e-08
d
yr
n .2430509099195798 3.5311e-09 deg/d
Q 3.082232413013579 2.9853e-08 AU
  Orbit Determination Parameters
   # obs. used (total)      555  
   data-arc span      5851 days (16.02 yr)  
   first obs. used      1997-04-15  
   last obs. used      2013-04-22  
   planetary ephem.      DE405  
   SB-pert. ephem.      SB405-CPV-2  
   condition code      0  
   fit RMS      .54754  
   data source      ORB  
   producer      Otto Matic  
   solution date      2013-Apr-29 16:00:33  

Additional Information
 Earth MOID = 1.03343 AU 
 T_jup = 3.398 
[ show covariance matrix ]

Ephemeris | Orbit Diagram | Orbital Elements | Physical Parameters | Discovery Circumstances ]

Physical Parameter Table
Parameter Symbol Value Units Sigma Reference Notes
absolute magnitude H 14.351 mag .49606 1 autocmod 2.5c

43982 (1997 GA32)          Discovered 1997-Apr-15 by BAO Schmidt CCD Asteroid Program at Xinglong (327)
Reference: 20020822/Numbers.arcLast Updated: 2004-04-19

Alternate Designations
 1997 GA32 = 2000 AU171 
Ephemeris | Orbit Diagram | Orbital Elements | Physical Parameters | Discovery Circumstances ]
ABOUT SSD CREDITS/AWARDS PRIVACY/COPYRIGHT GLOSSARY LINKS
FirstGov 2013-Jun-19 21:45 UT
(server date/time)  
NASA Home Page
Site Manager:   Donald K. Yeomans
Webmaster  Alan B. Chamberlin